Time,TemperatureF,DewpointF,PressureIn,WindDirection,WindDirectionDegrees,WindSpeedMPH,WindSpeedGustMPH,Humidity,HourlyPrecipIn,Conditions,Clouds,dailyrainin,SoftwareType,DateUTC
2013-02-20 00:00:00,24.9,19.0,30.17,WSW,237,4.0,4.0,78,0.00,,,0.00,Wunderground v.1.15,2013-02-20 05:00:00,
2013-02-20 00:01:00,24.9,19.0,30.17,West,260,4.0,4.0,78,0.00,,,0.00,Wunderground v.1.15,2013-02-20 05:01:00,
2013-02-20 00:02:00,24.8,18.9,30.17,West,260,3.0,4.0,78,0.00,,,0.00,Wunderground v.1.15,2013-02-20 05:02:00,
2013-02-20 00:05:00,24.9,19.0,30.17,West,259,3.0,5.0,78,0.00,,,0.00,Wunderground v.1.15,2013-02-20 05:05:00,
2013-02-20 00:11:00,25.0,18.8,30.17,West,270,5.0,5.0,77,0.00,,,0.00,Wunderground v.1.15,2013-02-20 05:11:00,
2013-02-20 00:16:00,25.0,18.5,30.17,WNW,283,6.0,8.0,76,0.00,,,0.00,Wunderground v.1.15,2013-02-20 05:16:00,
2013-02-20 00:23:00,25.1,18.6,30.17,WNW,285,6.0,11.0,76,0.00,,,0.00,Wunderground v.1.15,2013-02-20 05:23:00,
2013-02-20 00:28:00,25.0,18.2,30.17,WSW,251,7.0,11.0,75,0.00,,,0.00,Wunderground v.1.15,2013-02-20 05:28:00,
2013-02-20 00:33:00,25.0,18.2,30.18,WSW,250,7.0,8.0,75,0.00,,,0.00,Wunderground v.1.15,2013-02-20 05:33:00,
2013-02-20 00:38:00,25.0,18.2,30.17,WNW,284,6.0,13.0,75,0.00,,,0.00,Wunderground v.1.15,2013-02-20 05:38:00,
2013-02-20 00:44:00,24.9,18.1,30.17,West,265,6.0,7.0,75,0.00,,,0.00,Wunderground v.1.15,2013-02-20 05:44:00,
2013-02-20 00:49:00,24.8,18.0,30.18,West,262,6.0,8.0,75,0.00,,,0.00,Wunderground v.1.15,2013-02-20 05:49:00,
2013-02-20 00:55:00,24.7,18.2,30.17,West,277,6.0,9.0,76,0.00,,,0.00,Wunderground v.1.15,2013-02-20 05:55:00,
2013-02-20 01:00:00,24.5,18.0,30.17,NW,306,5.0,6.0,76,0.00,,,0.00,Wunderground v.1.15,2013-02-20 06:00:00,
2013-02-20 01:06:00,24.4,17.9,30.18,West,281,5.0,6.0,76,0.00,,,0.00,Wunderground v.1.15,2013-02-20 06:06:00,
2013-02-20 01:11:00,24.4,17.9,30.17,WSW,237,6.0,6.0,76,0.00,,,0.00,Wunderground v.1.15,2013-02-20 06:11:00,
2013-02-20 01:16:00,24.4,18.2,30.18,West,276,5.0,6.0,77,0.00,,,0.00,Wunderground v.1.15,2013-02-20 06:16:00,
2013-02-20 01:21:00,24.5,18.0,30.18,WNW,287,5.0,7.0,76,0.00,,,0.00,Wunderground v.1.15,2013-02-20 06:21:00,
2013-02-20 01:27:00,24.6,18.1,30.18,NW,311,6.0,9.0,76,0.00,,,0.00,Wunderground v.1.15,2013-02-20 06:27:00,
2013-02-20 01:33:00,24.6,18.1,30.18,West,274,6.0,10.0,76,0.00,,,0.00,Wunderground v.1.15,2013-02-20 06:33:00,
2013-02-20 01:39:00,24.4,16.0,30.18,West,276,7.0,15.0,70,0.00,,,0.00,Wunderground v.1.15,2013-02-20 06:39:00,
2013-02-20 01:44:00,24.0,15.6,30.19,WNW,297,8.0,12.0,70,0.00,,,0.00,Wunderground v.1.15,2013-02-20 06:44:00,
2013-02-20 01:50:00,23.7,15.3,30.19,WSW,253,7.0,7.0,70,0.00,,,0.00,Wunderground v.1.15,2013-02-20 06:50:00,
2013-02-20 01:55:00,23.4,15.4,30.18,WNW,294,7.0,9.0,71,0.00,,,0.00,Wunderground v.1.15,2013-02-20 06:55:00,
2013-02-20 02:00:00,23.1,15.4,30.18,WNW,288,6.0,6.0,72,0.00,,,0.00,Wunderground v.1.15,2013-02-20 07:00:00,
2013-02-20 02:06:00,22.9,15.5,30.19,WNW,283,6.0,7.0,73,0.00,,,0.00,Wunderground v.1.15,2013-02-20 07:06:00,
2013-02-20 02:11:00,22.7,15.3,30.19,WNW,285,6.0,6.0,73,0.00,,,0.00,Wunderground v.1.15,2013-02-20 07:11:00,
2013-02-20 02:16:00,22.6,15.6,30.19,WSW,256,5.0,6.0,74,0.00,,,0.00,Wunderground v.1.15,2013-02-20 07:16:00,
2013-02-20 02:21:00,22.5,15.5,30.19,West,280,5.0,6.0,74,0.00,,,0.00,Wunderground v.1.15,2013-02-20 07:21:00,
2013-02-20 02:27:00,22.3,15.3,30.19,West,264,5.0,7.0,74,0.00,,,0.00,Wunderground v.1.15,2013-02-20 07:27:00,
2013-02-20 02:33:00,22.2,15.5,30.19,West,278,5.0,8.0,75,0.00,,,0.00,Wunderground v.1.15,2013-02-20 07:33:00,
2013-02-20 02:39:00,22.0,15.3,30.19,WNW,290,5.0,8.0,75,0.00,,,0.00,Wunderground v.1.15,2013-02-20 07:39:00,
2013-02-20 02:44:00,21.9,15.2,30.19,WSW,253,4.0,5.0,75,0.00,,,0.00,Wunderground v.1.15,2013-02-20 07:44:00,
2013-02-20 02:49:00,21.8,15.4,30.20,West,263,4.0,5.0,76,0.00,,,0.00,Wunderground v.1.15,2013-02-20 07:49:00,
2013-02-20 02:54:00,21.7,15.3,30.19,West,266,4.0,5.0,76,0.00,,,0.00,Wunderground v.1.15,2013-02-20 07:54:00,
2013-02-20 02:59:00,21.7,15.6,30.20,WSW,246,4.0,5.0,77,0.00,,,0.00,Wunderground v.1.15,2013-02-20 07:59:00,
2013-02-20 03:05:00,21.8,15.4,30.20,WSW,256,4.0,7.0,76,0.00,,,0.00,Wunderground v.1.15,2013-02-20 08:05:00,
2013-02-20 03:11:00,22.0,15.6,30.21,West,263,5.0,6.0,76,0.00,,,0.00,Wunderground v.1.15,2013-02-20 08:11:00,
2013-02-20 03:18:00,22.1,15.7,30.21,WSW,243,5.0,8.0,76,0.00,,,0.00,Wunderground v.1.15,2013-02-20 08:18:00,
2013-02-20 03:24:00,22.1,15.7,30.21,West,267,6.0,10.0,76,0.00,,,0.00,Wunderground v.1.15,2013-02-20 08:24:00,
2013-02-20 03:31:00,22.0,15.6,30.21,WSW,248,6.0,10.0,76,0.00,,,0.00,Wunderground v.1.15,2013-02-20 08:31:00,
2013-02-20 03:37:00,22.0,15.9,30.22,WSW,248,6.0,10.0,77,0.00,,,0.00,Wunderground v.1.15,2013-02-20 08:37:00,
2013-02-20 03:43:00,22.0,15.6,30.22,WSW,250,6.0,6.0,76,0.00,,,0.00,Wunderground v.1.15,2013-02-20 08:43:00,
2013-02-20 03:49:00,22.0,15.6,30.22,West,267,5.0,9.0,76,0.00,,,0.00,Wunderground v.1.15,2013-02-20 08:49:00,
2013-02-20 03:55:00,22.0,15.6,30.22,WSW,248,5.0,5.0,76,0.00,,,0.00,Wunderground v.1.15,2013-02-20 08:55:00,
2013-02-20 04:00:00,22.0,15.9,30.22,West,259,4.0,4.0,77,0.00,,,0.00,Wunderground v.1.15,2013-02-20 09:00:00,
2013-02-20 04:06:00,22.1,15.7,30.22,WSW,249,4.0,5.0,76,0.00,,,0.00,Wunderground v.1.15,2013-02-20 09:06:00,
2013-02-20 04:11:00,22.1,15.4,30.22,WSW,239,4.0,5.0,75,0.00,,,0.00,Wunderground v.1.15,2013-02-20 09:11:00,
2013-02-20 04:16:00,22.1,15.4,30.23,WSW,243,5.0,7.0,75,0.00,,,0.00,Wunderground v.1.15,2013-02-20 09:16:00,
2013-02-20 04:21:00,22.2,15.5,30.22,West,281,6.0,6.0,75,0.00,,,0.00,Wunderground v.1.15,2013-02-20 09:21:00,
2013-02-20 04:27:00,22.3,15.0,30.23,West,281,6.0,8.0,73,0.00,,,0.00,Wunderground v.1.15,2013-02-20 09:27:00,
2013-02-20 04:33:00,22.3,15.3,30.23,West,278,6.0,7.0,74,0.00,,,0.00,Wunderground v.1.15,2013-02-20 09:33:00,
2013-02-20 04:39:00,22.3,15.0,30.23,West,271,5.0,9.0,73,0.00,,,0.00,Wunderground v.1.15,2013-02-20 09:39:00,
2013-02-20 04:44:00,22.3,15.0,30.23,West,264,5.0,6.0,73,0.00,,,0.00,Wunderground v.1.15,2013-02-20 09:44:00,
2013-02-20 04:50:00,22.3,15.3,30.23,WNW,293,4.0,6.0,74,0.00,,,0.00,Wunderground v.1.15,2013-02-20 09:50:00,
2013-02-20 04:56:00,22.4,15.1,30.23,WSW,250,5.0,7.0,73,0.00,,,0.00,Wunderground v.1.15,2013-02-20 09:56:00,
2013-02-20 05:02:00,22.4,14.7,30.23,WNW,297,5.0,6.0,72,0.00,,,0.00,Wunderground v.1.15,2013-02-20 10:02:00,
2013-02-20 05:07:00,22.4,14.7,30.23,West,267,5.0,6.0,72,0.00,,,0.00,Wunderground v.1.15,2013-02-20 10:07:00,
2013-02-20 05:12:00,22.4,14.4,30.23,West,259,5.0,7.0,71,0.00,,,0.00,Wunderground v.1.15,2013-02-20 10:12:00,
2013-02-20 05:18:00,22.4,14.7,30.23,West,272,6.0,10.0,72,0.00,,,0.00,Wunderground v.1.15,2013-02-20 10:18:00,
2013-02-20 05:23:00,22.4,15.1,30.23,West,263,5.0,6.0,73,0.00,,,0.00,Wunderground v.1.15,2013-02-20 10:23:00,
2013-02-20 05:29:00,22.4,14.7,30.24,WSW,243,4.0,6.0,72,0.00,,,0.00,Wunderground v.1.15,2013-02-20 10:29:00,
2013-02-20 05:34:00,22.3,14.6,30.24,West,267,4.0,6.0,72,0.00,,,0.00,Wunderground v.1.15,2013-02-20 10:34:00,
2013-02-20 05:40:00,22.3,14.6,30.24,West,259,4.0,5.0,72,0.00,,,0.00,Wunderground v.1.15,2013-02-20 10:40:00,
2013-02-20 05:45:00,22.3,14.6,30.24,WNW,293,5.0,5.0,72,0.00,,,0.00,Wunderground v.1.15,2013-02-20 10:45:00,
2013-02-20 05:50:00,22.2,14.9,30.24,WSW,243,4.0,4.0,73,0.00,,,0.00,Wunderground v.1.15,2013-02-20 10:50:00,
2013-02-20 05:55:00,22.2,14.5,30.24,WNW,297,4.0,6.0,72,0.00,,,0.00,Wunderground v.1.15,2013-02-20 10:55:00,
2013-02-20 06:00:00,22.3,15.0,30.24,West,278,4.0,4.0,73,0.00,,,0.00,Wunderground v.1.15,2013-02-20 11:00:00,
2013-02-20 06:06:00,22.3,14.6,30.25,WNW,295,3.0,7.0,72,0.00,,,0.00,Wunderground v.1.15,2013-02-20 11:06:00,
2013-02-20 06:12:00,22.3,14.6,30.25,West,261,4.0,5.0,72,0.00,,,0.00,Wunderground v.1.15,2013-02-20 11:12:00,
2013-02-20 06:18:00,22.3,14.6,30.25,West,276,4.0,7.0,72,0.00,,,0.00,Wunderground v.1.15,2013-02-20 11:18:00,
2013-02-20 06:23:00,22.3,14.3,30.25,West,260,4.0,5.0,71,0.00,,,0.00,Wunderground v.1.15,2013-02-20 11:23:00,
2013-02-20 06:29:00,22.2,14.2,30.25,NW,305,4.0,7.0,71,0.00,,,0.00,Wunderground v.1.15,2013-02-20 11:29:00,
2013-02-20 06:34:00,22.2,14.2,30.25,West,263,4.0,7.0,71,0.00,,,0.00,Wunderground v.1.15,2013-02-20 11:34:00,
2013-02-20 06:40:00,22.1,14.4,30.25,WNW,287,4.0,4.0,72,0.00,,,0.00,Wunderground v.1.15,2013-02-20 11:40:00,
2013-02-20 06:45:00,22.1,14.4,30.25,West,281,4.0,5.0,72,0.00,,,0.00,Wunderground v.1.15,2013-02-20 11:45:00,
2013-02-20 06:50:00,21.9,14.6,30.26,SW,229,3.0,3.0,73,0.00,,,0.00,Wunderground v.1.15,2013-02-20 11:50:00,
2013-02-20 06:57:00,21.9,14.9,30.25,WSW,253,3.0,4.0,74,0.00,,,0.00,Wunderground v.1.15,2013-02-20 11:57:00,
2013-02-20 07:02:00,21.9,14.9,30.26,WSW,253,3.0,4.0,74,0.00,,,0.00,Wunderground v.1.15,2013-02-20 12:02:00,
2013-02-20 07:07:00,21.9,14.6,30.25,WSW,248,4.0,4.0,73,0.00,,,0.00,Wunderground v.1.15,2013-02-20 12:07:00,
2013-02-20 07:13:00,21.9,14.6,30.25,West,281,3.0,4.0,73,0.00,,,0.00,Wunderground v.1.15,2013-02-20 12:13:00,
2013-02-20 07:19:00,21.9,14.6,30.26,WSW,249,4.0,6.0,73,0.00,,,0.00,Wunderground v.1.15,2013-02-20 12:19:00,
2013-02-20 07:25:00,22.0,14.0,30.26,WSW,245,5.0,8.0,71,0.00,,,0.00,Wunderground v.1.15,2013-02-20 12:25:00,
2013-02-20 07:30:00,22.0,14.3,30.26,West,274,5.0,5.0,72,0.00,,,0.00,Wunderground v.1.15,2013-02-20 12:30:00,
2013-02-20 07:35:00,21.9,14.6,30.26,West,276,4.0,5.0,73,0.00,,,0.00,Wunderground v.1.15,2013-02-20 12:35:00,
2013-02-20 07:40:00,21.9,14.3,30.27,WNW,288,4.0,4.0,72,0.00,,,0.00,Wunderground v.1.15,2013-02-20 12:40:00,
2013-02-20 07:46:00,21.7,14.1,30.27,WSW,245,5.0,7.0,72,0.00,,,0.00,Wunderground v.1.15,2013-02-20 12:46:00,
2013-02-20 07:51:00,21.5,14.2,30.27,West,262,5.0,8.0,73,0.00,,,0.00,Wunderground v.1.15,2013-02-20 12:51:00,
2013-02-20 07:57:00,21.4,14.1,30.28,West,271,5.0,8.0,73,0.00,,,0.00,Wunderground v.1.15,2013-02-20 12:57:00,
2013-02-20 08:02:00,21.3,14.0,30.28,West,269,4.0,8.0,73,0.00,,,0.00,Wunderground v.1.15,2013-02-20 13:02:00,
2013-02-20 08:07:00,21.3,14.0,30.28,WSW,256,4.0,8.0,73,0.00,,,0.00,Wunderground v.1.15,2013-02-20 13:07:00,
2013-02-20 08:14:00,21.4,13.8,30.28,West,260,4.0,6.0,72,0.00,,,0.00,Wunderground v.1.15,2013-02-20 13:14:00,
2013-02-20 08:19:00,21.7,14.1,30.28,WSW,248,4.0,7.0,72,0.00,,,0.00,Wunderground v.1.15,2013-02-20 13:19:00,
2013-02-20 08:25:00,21.9,14.3,30.29,WSW,250,4.0,5.0,72,0.00,,,0.00,Wunderground v.1.15,2013-02-20 13:25:00,
2013-02-20 08:30:00,22.1,13.8,30.29,WSW,253,5.0,6.0,70,0.00,,,0.00,Wunderground v.1.15,2013-02-20 13:30:00,
2013-02-20 08:35:00,22.4,14.4,30.29,West,272,5.0,6.0,71,0.00,,,0.00,Wunderground v.1.15,2013-02-20 13:35:00,
2013-02-20 08:41:00,22.5,14.2,30.29,West,265,6.0,6.0,70,0.00,,,0.00,Wunderground v.1.15,2013-02-20 13:41:00,
2013-02-20 08:47:00,22.7,14.4,30.30,West,264,6.0,8.0,70,0.00,,,0.00,Wunderground v.1.15,2013-02-20 13:47:00,
2013-02-20 08:53:00,23.1,14.4,30.29,NW,304,6.0,10.0,69,0.00,,,0.00,Wunderground v.1.15,2013-02-20 13:53:00,
2013-02-20 08:58:00,23.1,14.1,30.30,West,281,7.0,10.0,68,0.00,,,0.00,Wunderground v.1.15,2013-02-20 13:58:00,
2013-02-20 09:04:00,23.2,14.2,30.30,West,259,7.0,7.0,68,0.00,,,0.00,Wunderground v.1.15,2013-02-20 14:04:00,
2013-02-20 09:09:00,23.4,14.4,30.30,West,276,7.0,10.0,68,0.00,,,0.00,Wunderground v.1.15,2013-02-20 14:09:00,
2013-02-20 09:14:00,23.4,14.4,30.30,WNW,288,7.0,9.0,68,0.00,,,0.00,Wunderground v.1.15,2013-02-20 14:14:00,
2013-02-20 09:20:00,23.7,14.7,30.30,WSW,252,6.0,6.0,68,0.00,,,0.00,Wunderground v.1.15,2013-02-20 14:20:00,
2013-02-20 09:25:00,23.9,14.5,30.30,WNW,282,6.0,9.0,67,0.00,,,0.00,Wunderground v.1.15,2013-02-20 14:25:00,
2013-02-20 09:31:00,24.0,14.6,30.29,WNW,287,6.0,7.0,67,0.00,,,0.00,Wunderground v.1.15,2013-02-20 14:31:00,
2013-02-20 09:37:00,24.0,14.6,30.29,West,276,7.0,11.0,67,0.00,,,0.00,Wunderground v.1.15,2013-02-20 14:37:00,
2013-02-20 09:43:00,24.2,14.5,30.29,WSW,248,6.0,7.0,66,0.00,,,0.00,Wunderground v.1.15,2013-02-20 14:43:00,
2013-02-20 09:48:00,24.3,14.2,30.29,West,274,6.0,9.0,65,0.00,,,0.00,Wunderground v.1.15,2013-02-20 14:48:00,
2013-02-20 09:54:00,24.3,14.2,30.29,West,276,6.0,7.0,65,0.00,,,0.00,Wunderground v.1.15,2013-02-20 14:54:00,
2013-02-20 10:00:00,24.3,14.2,30.29,West,273,6.0,8.0,65,0.00,,,0.00,Wunderground v.1.15,2013-02-20 15:00:00,
2013-02-20 10:06:00,24.5,14.4,30.29,WSW,256,6.0,8.0,65,0.00,,,0.00,Wunderground v.1.15,2013-02-20 15:06:00,
2013-02-20 10:11:00,24.9,14.1,30.29,WNW,283,6.0,8.0,63,0.00,,,0.00,Wunderground v.1.15,2013-02-20 15:11:00,
2013-02-20 10:17:00,25.2,14.7,30.30,NW,309,6.0,8.0,64,0.00,,,0.00,Wunderground v.1.15,2013-02-20 15:17:00,
2013-02-20 10:23:00,25.4,14.5,30.30,NW,307,6.0,8.0,63,0.00,,,0.00,Wunderground v.1.15,2013-02-20 15:23:00,
2013-02-20 10:29:00,25.3,14.1,30.30,West,276,6.0,8.0,62,0.00,,,0.00,Wunderground v.1.15,2013-02-20 15:29:00,
2013-02-20 10:34:00,25.5,14.6,30.30,WNW,293,5.0,7.0,63,0.00,,,0.00,Wunderground v.1.15,2013-02-20 15:34:00,
2013-02-20 10:40:00,25.7,15.2,30.31,WSW,250,7.0,10.0,64,0.00,,,0.00,Wunderground v.1.15,2013-02-20 15:40:00,
2013-02-20 10:46:00,25.7,14.8,30.30,WNW,287,7.0,10.0,63,0.00,,,0.00,Wunderground v.1.15,2013-02-20 15:46:00,
2013-02-20 10:51:00,25.8,14.9,30.30,WSW,248,6.0,9.0,63,0.00,,,0.00,Wunderground v.1.15,2013-02-20 15:51:00,
2013-02-20 10:58:00,26.2,14.9,30.31,West,280,6.0,9.0,62,0.00,,,0.00,Wunderground v.1.15,2013-02-20 15:58:00,
2013-02-20 11:04:00,26.2,14.2,30.30,WNW,285,6.0,7.0,60,0.00,,,0.00,Wunderground v.1.15,2013-02-20 16:04:00,
2013-02-20 11:09:00,26.5,14.9,30.31,SW,233,6.0,9.0,61,0.00,,,0.00,Wunderground v.1.15,2013-02-20 16:09:00,
2013-02-20 11:16:00,26.7,14.7,30.31,WSW,256,6.0,10.0,60,0.00,,,0.00,Wunderground v.1.15,2013-02-20 16:16:00,
2013-02-20 11:22:00,27.3,16.0,30.32,WNW,290,5.0,8.0,62,0.00,,,0.00,Wunderground v.1.15,2013-02-20 16:22:00,
2013-02-20 11:28:00,27.2,15.1,30.32,West,281,6.0,10.0,60,0.00,,,0.00,Wunderground v.1.15,2013-02-20 16:28:00,
2013-02-20 11:33:00,27.4,15.7,30.32,WNW,293,6.0,7.0,61,0.00,,,0.00,Wunderground v.1.15,2013-02-20 16:33:00,
2013-02-20 11:38:00,27.7,15.6,30.32,WSW,242,6.0,7.0,60,0.00,,,0.00,Wunderground v.1.15,2013-02-20 16:38:00,
2013-02-20 11:43:00,27.7,15.6,30.32,West,271,6.0,8.0,60,0.00,,,0.00,Wunderground v.1.15,2013-02-20 16:43:00,
2013-02-20 11:49:00,28.1,15.6,30.31,West,278,6.0,8.0,59,0.00,,,0.00,Wunderground v.1.15,2013-02-20 16:49:00,
2013-02-20 11:55:00,28.3,15.8,30.31,West,276,6.0,7.0,59,0.00,,,0.00,Wunderground v.1.15,2013-02-20 16:55:00,
2013-02-20 12:00:00,28.8,17.8,30.31,SW,228,5.0,5.0,63,0.00,,,0.00,Wunderground v.1.15,2013-02-20 17:00:00,
2013-02-20 12:06:00,28.9,16.0,30.32,WSW,242,5.0,10.0,58,0.00,,,0.00,Wunderground v.1.15,2013-02-20 17:06:00,
2013-02-20 12:11:00,29.1,16.5,30.32,WNW,283,6.0,7.0,59,0.00,,,0.00,Wunderground v.1.15,2013-02-20 17:11:00,
2013-02-20 12:17:00,29.1,16.9,30.32,WNW,301,6.0,8.0,60,0.00,,,0.00,Wunderground v.1.15,2013-02-20 17:17:00,
2013-02-20 12:23:00,29.4,16.4,30.31,West,281,6.0,9.0,58,0.00,,,0.00,Wunderground v.1.15,2013-02-20 17:23:00,
2013-02-20 12:29:00,29.7,18.3,30.31,West,259,6.0,9.0,62,0.00,,,0.00,Wunderground v.1.15,2013-02-20 17:29:00,
2013-02-20 12:34:00,29.5,17.3,30.31,WSW,257,6.0,9.0,60,0.00,,,0.00,Wunderground v.1.15,2013-02-20 17:34:00,
2013-02-20 12:40:00,29.8,16.8,30.31,WSW,253,6.0,6.0,58,0.00,,,0.00,Wunderground v.1.15,2013-02-20 17:40:00,
2013-02-20 12:45:00,29.7,16.7,30.31,WNW,293,6.0,7.0,58,0.00,,,0.00,Wunderground v.1.15,2013-02-20 17:45:00,
2013-02-20 12:51:00,29.3,16.3,30.31,West,279,6.0,9.0,58,0.00,,,0.00,Wunderground v.1.15,2013-02-20 17:51:00,
2013-02-20 12:57:00,29.2,17.0,30.30,WNW,288,7.0,10.0,60,0.00,,,0.00,Wunderground v.1.15,2013-02-20 17:57:00,
2013-02-20 13:02:00,29.4,16.8,30.30,WNW,287,6.0,7.0,59,0.00,,,0.00,Wunderground v.1.15,2013-02-20 18:02:00,
2013-02-20 13:08:00,29.5,17.3,30.30,West,279,6.0,8.0,60,0.00,,,0.00,Wunderground v.1.15,2013-02-20 18:08:00,
2013-02-20 13:14:00,29.6,17.4,30.30,WNW,294,7.0,11.0,60,0.00,,,0.00,Wunderground v.1.15,2013-02-20 18:14:00,
2013-02-20 13:19:00,29.8,17.2,30.30,West,259,7.0,11.0,59,0.00,,,0.00,Wunderground v.1.15,2013-02-20 18:19:00,
2013-02-20 13:25:00,30.1,17.1,30.30,WSW,249,6.0,7.0,58,0.00,,,0.00,Wunderground v.1.15,2013-02-20 18:25:00,
2013-02-20 13:31:00,30.1,17.1,30.30,WSW,257,7.0,7.0,58,0.00,,,0.00,Wunderground v.1.15,2013-02-20 18:31:00,
2013-02-20 13:37:00,30.4,18.5,30.30,NW,316,6.0,7.0,61,0.00,,,0.00,Wunderground v.1.15,2013-02-20 18:37:00,
2013-02-20 13:43:00,30.2,18.0,30.29,WNW,302,6.0,8.0,60,0.00,,,0.00,Wunderground v.1.15,2013-02-20 18:43:00,
2013-02-20 13:48:00,30.7,18.4,30.29,SW,217,6.0,9.0,60,0.00,,,0.00,Wunderground v.1.15,2013-02-20 18:48:00,
2013-02-20 13:54:00,30.8,17.7,30.29,West,276,7.0,9.0,58,0.00,,,0.00,Wunderground v.1.15,2013-02-20 18:54:00,
2013-02-20 14:00:00,31.2,17.3,30.29,WNW,293,5.0,5.0,56,0.00,,,0.00,Wunderground v.1.15,2013-02-20 19:00:00,
2013-02-20 14:06:00,30.9,17.4,30.29,WNW,293,6.0,9.0,57,0.00,,,0.00,Wunderground v.1.15,2013-02-20 19:06:00,
2013-02-20 14:12:00,31.2,18.5,30.29,SW,229,7.0,7.0,59,0.00,,,0.00,Wunderground v.1.15,2013-02-20 19:12:00,
2013-02-20 14:17:00,31.1,18.4,30.28,West,274,6.0,7.0,59,0.00,,,0.00,Wunderground v.1.15,2013-02-20 19:17:00,
2013-02-20 14:23:00,31.3,17.8,30.28,West,277,5.0,9.0,57,0.00,,,0.00,Wunderground v.1.15,2013-02-20 19:23:00,
2013-02-20 14:29:00,31.1,17.6,30.29,WNW,285,6.0,11.0,57,0.00,,,0.00,Wunderground v.1.15,2013-02-20 19:29:00,
2013-02-20 14:34:00,31.0,17.5,30.29,WNW,298,6.0,8.0,57,0.00,,,0.00,Wunderground v.1.15,2013-02-20 19:34:00,
2013-02-20 14:40:00,31.1,18.0,30.29,West,276,6.0,6.0,58,0.00,,,0.00,Wunderground v.1.15,2013-02-20 19:40:00,
2013-02-20 14:46:00,31.2,17.7,30.28,WNW,291,5.0,9.0,57,0.00,,,0.00,Wunderground v.1.15,2013-02-20 19:46:00,
2013-02-20 14:51:00,31.4,17.9,30.28,West,274,5.0,8.0,57,0.00,,,0.00,Wunderground v.1.15,2013-02-20 19:51:00,
2013-02-20 14:57:00,31.1,17.2,30.28,West,276,6.0,8.0,56,0.00,,,0.00,Wunderground v.1.15,2013-02-20 19:57:00,
2013-02-20 15:02:00,31.3,17.8,30.28,West,259,5.0,8.0,57,0.00,,,0.00,Wunderground v.1.15,2013-02-20 20:02:00,
2013-02-20 15:08:00,31.5,18.4,30.29,West,281,5.0,8.0,58,0.00,,,0.00,Wunderground v.1.15,2013-02-20 20:08:00,
2013-02-20 15:14:00,31.7,17.8,30.29,WSW,246,6.0,7.0,56,0.00,,,0.00,Wunderground v.1.15,2013-02-20 20:14:00,
2013-02-20 15:20:00,31.8,17.0,30.29,West,266,6.0,7.0,54,0.00,,,0.00,Wunderground v.1.15,2013-02-20 20:20:00,
2013-02-20 15:25:00,31.7,17.4,30.29,West,270,6.0,9.0,55,0.00,,,0.00,Wunderground v.1.15,2013-02-20 20:25:00,
2013-02-20 15:31:00,31.6,17.3,30.29,West,276,6.0,6.0,55,0.00,,,0.00,Wunderground v.1.15,2013-02-20 20:31:00,
2013-02-20 15:36:00,31.7,17.8,30.29,NW,305,6.0,10.0,56,0.00,,,0.00,Wunderground v.1.15,2013-02-20 20:36:00,
2013-02-20 15:42:00,31.7,16.9,30.29,NW,307,5.0,5.0,54,0.00,,,0.00,Wunderground v.1.15,2013-02-20 20:42:00,
2013-02-20 15:48:00,31.5,16.7,30.29,WNW,293,6.0,10.0,54,0.00,,,0.00,Wunderground v.1.15,2013-02-20 20:48:00,
2013-02-20 15:54:00,31.6,18.1,30.29,WNW,293,6.0,7.0,57,0.00,,,0.00,Wunderground v.1.15,2013-02-20 20:54:00,
2013-02-20 15:59:00,31.6,16.8,30.29,NW,316,6.0,7.0,54,0.00,,,0.00,Wunderground v.1.15,2013-02-20 20:59:00,
2013-02-20 16:05:00,31.6,17.3,30.29,WNW,283,6.0,8.0,55,0.00,,,0.00,Wunderground v.1.15,2013-02-20 21:05:00,
2013-02-20 16:10:00,32.0,17.6,30.29,WNW,287,6.0,6.0,55,0.00,,,0.00,Wunderground v.1.15,2013-02-20 21:10:00,
2013-02-20 16:16:00,32.0,17.6,30.29,West,264,6.0,9.0,55,0.00,,,0.00,Wunderground v.1.15,2013-02-20 21:16:00,
2013-02-20 16:22:00,31.8,17.0,30.29,WNW,285,5.0,6.0,54,0.00,,,0.00,Wunderground v.1.15,2013-02-20 21:22:00,
2013-02-20 16:27:00,32.2,17.4,30.30,West,278,5.0,7.0,54,0.00,,,0.00,Wunderground v.1.15,2013-02-20 21:27:00,
2013-02-20 16:32:00,32.1,18.2,30.30,West,267,6.0,7.0,56,0.00,,,0.00,Wunderground v.1.15,2013-02-20 21:32:00,
2013-02-20 16:38:00,31.7,16.9,30.30,WNW,290,6.0,8.0,54,0.00,,,0.00,Wunderground v.1.15,2013-02-20 21:38:00,
2013-02-20 16:44:00,31.4,17.1,30.29,West,261,5.0,6.0,55,0.00,,,0.00,Wunderground v.1.15,2013-02-20 21:44:00,
2013-02-20 16:50:00,31.4,17.1,30.30,West,259,6.0,6.0,55,0.00,,,0.00,Wunderground v.1.15,2013-02-20 21:50:00,
2013-02-20 16:55:00,31.6,17.7,30.30,WNW,288,5.0,6.0,56,0.00,,,0.00,Wunderground v.1.15,2013-02-20 21:55:00,
2013-02-20 17:00:00,31.6,17.3,30.30,WNW,285,4.0,4.0,55,0.00,,,0.00,Wunderground v.1.15,2013-02-20 22:00:00,
2013-02-20 17:06:00,31.4,16.7,30.30,WNW,288,4.0,5.0,54,0.00,,,0.00,Wunderground v.1.15,2013-02-20 22:06:00,
2013-02-20 17:11:00,31.3,17.0,30.30,West,262,4.0,4.0,55,0.00,,,0.00,Wunderground v.1.15,2013-02-20 22:11:00,
2013-02-20 17:17:00,31.2,17.3,30.30,WNW,288,4.0,6.0,56,0.00,,,0.00,Wunderground v.1.15,2013-02-20 22:17:00,
2013-02-20 17:22:00,31.0,16.7,30.30,WSW,248,4.0,4.0,55,0.00,,,0.00,Wunderground v.1.15,2013-02-20 22:22:00,
2013-02-20 17:28:00,30.8,16.9,30.30,WNW,283,3.0,4.0,56,0.00,,,0.00,Wunderground v.1.15,2013-02-20 22:28:00,
2013-02-20 17:33:00,30.6,16.7,30.30,WNW,290,3.0,4.0,56,0.00,,,0.00,Wunderground v.1.15,2013-02-20 22:33:00,
2013-02-20 17:38:00,30.4,17.4,30.30,West,268,3.0,4.0,58,0.00,,,0.00,Wunderground v.1.15,2013-02-20 22:38:00,
2013-02-20 17:43:00,30.2,17.2,30.30,West,270,3.0,5.0,58,0.00,,,0.00,Wunderground v.1.15,2013-02-20 22:43:00,
2013-02-20 17:49:00,30.0,17.4,30.30,West,276,2.0,6.0,59,0.00,,,0.00,Wunderground v.1.15,2013-02-20 22:49:00,
2013-02-20 17:55:00,29.8,17.2,30.30,WSW,256,2.0,3.0,59,0.00,,,0.00,Wunderground v.1.15,2013-02-20 22:55:00,
2013-02-20 18:12:00,29.2,17.8,30.30,West,269,2.0,2.0,62,0.00,,,0.00,Wunderground v.1.15,2013-02-20 23:12:00,
2013-02-20 18:18:00,29.0,17.6,30.30,WSW,245,2.0,7.0,62,0.00,,,0.00,Wunderground v.1.15,2013-02-20 23:18:00,
2013-02-20 18:24:00,28.9,17.1,30.31,West,270,2.0,7.0,61,0.00,,,0.00,Wunderground v.1.15,2013-02-20 23:24:00,
2013-02-20 18:30:00,28.9,17.5,30.31,WSW,255,2.0,7.0,62,0.00,,,0.00,Wunderground v.1.15,2013-02-20 23:30:00,
2013-02-20 18:35:00,28.8,17.4,30.31,West,263,2.0,7.0,62,0.00,,,0.00,Wunderground v.1.15,2013-02-20 23:35:00,
2013-02-20 18:41:00,28.6,17.2,30.32,West,276,2.0,7.0,62,0.00,,,0.00,Wunderground v.1.15,2013-02-20 23:41:00,
2013-02-20 18:46:00,28.6,17.2,30.32,WSW,245,2.0,7.0,62,0.00,,,0.00,Wunderground v.1.15,2013-02-20 23:46:00,
2013-02-20 18:52:00,28.6,17.6,30.32,West,273,2.0,7.0,63,0.00,,,0.00,Wunderground v.1.15,2013-02-20 23:52:00,
2013-02-20 18:57:00,28.5,17.5,30.32,WSW,239,2.0,7.0,63,0.00,,,0.00,Wunderground v.1.15,2013-02-20 23:57:00,
2013-02-20 19:03:00,28.3,17.7,30.32,WSW,252,1.0,1.0,64,0.00,,,0.00,Wunderground v.1.15,2013-02-21 00:03:00,
2013-02-20 19:08:00,28.2,17.9,30.32,West,276,0.0,1.0,65,0.00,,,0.00,Wunderground v.1.15,2013-02-21 00:08:00,
2013-02-20 19:14:00,28.0,17.7,30.32,West,271,0.0,0.0,65,0.00,,,0.00,Wunderground v.1.15,2013-02-21 00:14:00,
2013-02-20 19:19:00,28.0,17.7,30.32,WSW,257,0.0,0.0,65,0.00,,,0.00,Wunderground v.1.15,2013-02-21 00:19:00,
2013-02-20 19:25:00,27.8,17.9,30.32,West,269,0.0,1.0,66,0.00,,,0.00,Wunderground v.1.15,2013-02-21 00:25:00,
2013-02-20 19:30:00,27.8,17.9,30.32,West,271,1.0,1.0,66,0.00,,,0.00,Wunderground v.1.15,2013-02-21 00:30:00,
2013-02-20 19:36:00,27.7,17.8,30.31,WNW,283,1.0,1.0,66,0.00,,,0.00,Wunderground v.1.15,2013-02-21 00:36:00,
2013-02-20 19:41:00,27.6,17.7,30.31,WNW,291,1.0,1.0,66,0.00,,,0.00,Wunderground v.1.15,2013-02-21 00:41:00,
2013-02-20 19:46:00,27.5,18.0,30.32,West,274,1.0,1.0,67,0.00,,,0.00,Wunderground v.1.15,2013-02-21 00:46:00,
2013-02-20 19:52:00,27.5,18.0,30.32,WNW,287,1.0,2.0,67,0.00,,,0.00,Wunderground v.1.15,2013-02-21 00:52:00,
2013-02-20 19:58:00,27.5,17.6,30.32,WNW,297,1.0,2.0,66,0.00,,,0.00,Wunderground v.1.15,2013-02-21 00:58:00,
2013-02-20 20:04:00,27.5,17.6,30.31,WNW,301,1.0,2.0,66,0.00,,,0.00,Wunderground v.1.15,2013-02-21 01:04:00,
2013-02-20 20:09:00,27.6,17.4,30.31,WNW,295,1.0,2.0,65,0.00,,,0.00,Wunderground v.1.15,2013-02-21 01:09:00,
2013-02-20 20:15:00,27.6,17.7,30.31,WNW,300,1.0,2.0,66,0.00,,,0.00,Wunderground v.1.15,2013-02-21 01:15:00,
2013-02-20 20:20:00,27.6,17.7,30.31,WNW,287,1.0,1.0,66,0.00,,,0.00,Wunderground v.1.15,2013-02-21 01:20:00,
2013-02-20 20:26:00,27.6,17.7,30.31,NW,304,1.0,2.0,66,0.00,,,0.00,Wunderground v.1.15,2013-02-21 01:26:00,
2013-02-20 20:31:00,27.5,17.6,30.31,WNW,290,1.0,1.0,66,0.00,,,0.00,Wunderground v.1.15,2013-02-21 01:31:00,
2013-02-20 20:37:00,27.5,17.6,30.31,WNW,285,0.0,1.0,66,0.00,,,0.00,Wunderground v.1.15,2013-02-21 01:37:00,
2013-02-20 20:42:00,27.4,17.9,30.31,WNW,297,0.0,1.0,67,0.00,,,0.00,Wunderground v.1.15,2013-02-21 01:42:00,
2013-02-20 20:47:00,27.3,17.8,30.31,WNW,297,0.0,1.0,67,0.00,,,0.00,Wunderground v.1.15,2013-02-21 01:47:00,
2013-02-20 20:52:00,27.2,18.4,30.31,West,262,0.0,0.0,69,0.00,,,0.00,Wunderground v.1.15,2013-02-21 01:52:00,
2013-02-20 20:58:00,27.0,17.8,30.32,West,279,0.0,1.0,68,0.00,,,0.00,Wunderground v.1.15,2013-02-21 01:58:00,
2013-02-20 21:04:00,26.9,17.4,30.32,WNW,287,0.0,1.0,67,0.00,,,0.00,Wunderground v.1.15,2013-02-21 02:04:00,
2013-02-20 21:10:00,27.0,17.1,30.32,WNW,298,1.0,1.0,66,0.00,,,0.00,Wunderground v.1.15,2013-02-21 02:10:00,
2013-02-20 21:15:00,27.0,17.1,30.31,NNW,330,1.0,1.0,66,0.00,,,0.00,Wunderground v.1.15,2013-02-21 02:15:00,
2013-02-20 21:20:00,27.0,16.8,30.31,NW,324,1.0,2.0,65,0.00,,,0.00,Wunderground v.1.15,2013-02-21 02:20:00,
2013-02-20 21:26:00,27.0,17.1,30.31,NNW,328,1.0,3.0,66,0.00,,,0.00,Wunderground v.1.15,2013-02-21 02:26:00,
2013-02-20 21:31:00,26.9,16.7,30.32,NW,307,1.0,1.0,65,0.00,,,0.00,Wunderground v.1.15,2013-02-21 02:31:00,
2013-02-20 21:37:00,26.9,17.0,30.32,NNW,333,1.0,1.0,66,0.00,,,0.00,Wunderground v.1.15,2013-02-21 02:37:00,
2013-02-20 21:44:00,26.7,16.1,30.33,NW,321,1.0,3.0,64,0.00,,,0.00,Wunderground v.1.15,2013-02-21 02:44:00,
2013-02-20 21:50:00,26.6,16.1,30.33,North,359,2.0,3.0,64,0.00,,,0.00,Wunderground v.1.15,2013-02-21 02:50:00,
2013-02-20 21:56:00,26.3,16.1,30.33,NNW,335,2.0,5.0,65,0.00,,,0.00,Wunderground v.1.15,2013-02-21 02:56:00,
2013-02-20 22:02:00,26.1,15.9,30.32,NNW,345,2.0,4.0,65,0.00,,,0.00,Wunderground v.1.15,2013-02-21 03:02:00,
2013-02-20 22:07:00,25.8,16.0,30.32,North,353,3.0,4.0,66,0.00,,,0.00,Wunderground v.1.15,2013-02-21 03:07:00,
2013-02-20 22:12:00,25.7,15.9,30.32,North,1,2.0,3.0,66,0.00,,,0.00,Wunderground v.1.15,2013-02-21 03:12:00,
2013-02-20 22:17:00,25.4,15.6,30.32,NNE,18,2.0,4.0,66,0.00,,,0.00,Wunderground v.1.15,2013-02-21 03:17:00,
2013-02-20 22:23:00,25.3,15.5,30.32,North,359,2.0,3.0,66,0.00,,,0.00,Wunderground v.1.15,2013-02-21 03:23:00,
2013-02-20 22:28:00,25.2,15.4,30.32,North,9,2.0,4.0,66,0.00,,,0.00,Wunderground v.1.15,2013-02-21 03:28:00,
2013-02-20 22:34:00,25.0,15.2,30.32,NNW,344,3.0,3.0,66,0.00,,,0.00,Wunderground v.1.15,2013-02-21 03:34:00,
2013-02-20 22:39:00,25.0,15.2,30.32,NNE,15,3.0,4.0,66,0.00,,,0.00,Wunderground v.1.15,2013-02-21 03:39:00,
2013-02-20 22:45:00,24.7,15.3,30.32,NNE,23,3.0,4.0,67,0.00,,,0.00,Wunderground v.1.15,2013-02-21 03:45:00,
2013-02-20 22:50:00,24.5,15.4,30.32,North,355,2.0,2.0,68,0.00,,,0.00,Wunderground v.1.15,2013-02-21 03:50:00,
2013-02-20 22:56:00,24.2,15.5,30.32,NNW,343,1.0,2.0,69,0.00,,,0.00,Wunderground v.1.15,2013-02-21 03:56:00,
2013-02-20 23:02:00,23.9,15.5,30.32,NW,321,1.0,1.0,70,0.00,,,0.00,Wunderground v.1.15,2013-02-21 04:02:00,
2013-02-20 23:08:00,23.6,15.2,30.32,NNW,328,0.0,2.0,70,0.00,,,0.00,Wunderground v.1.15,2013-02-21 04:08:00,
2013-02-20 23:14:00,23.5,15.1,30.33,NW,309,0.0,0.0,70,0.00,,,0.00,Wunderground v.1.15,2013-02-21 04:14:00,
2013-02-20 23:20:00,23.3,15.0,30.33,North,352,0.0,0.0,70,0.00,,,0.00,Wunderground v.1.15,2013-02-21 04:20:00,
2013-02-20 23:25:00,23.2,15.2,30.32,NNE,22,1.0,1.0,71,0.00,,,0.00,Wunderground v.1.15,2013-02-21 04:25:00,
2013-02-20 23:31:00,23.1,15.1,30.32,NNE,20,1.0,1.0,71,0.00,,,0.00,Wunderground v.1.15,2013-02-21 04:31:00,
2013-02-20 23:37:00,23.1,15.4,30.32,NNE,18,1.0,5.0,72,0.00,,,0.00,Wunderground v.1.15,2013-02-21 04:37:00,
2013-02-20 23:43:00,23.2,15.5,30.33,NNE,33,2.0,2.0,72,0.00,,,0.00,Wunderground v.1.15,2013-02-21 04:43:00,
2013-02-20 23:49:00,23.1,15.7,30.32,ENE,58,2.0,4.0,73,0.00,,,0.00,Wunderground v.1.15,2013-02-21 04:49:00,
2013-02-20 23:55:00,23.0,15.6,30.33,North,358,1.0,3.0,73,0.00,,,0.00,Wunderground v.1.15,2013-02-21 04:55:00,